Regional Weather Roundup
Issued by NWS Binghamton, NY

Home | Current Version | Previous Version | Text Only | Print | Product List | Glossary On
Versions: 1 2 3 4 5 6 7 8 9 10 11 12 13 14 15 16 17 18 19 20 21 22 23 24 25 26 27
000
ASUS41 KBGM 201210
RWRBGM

REGIONAL WEATHER ROUNDUP
NATIONAL WEATHER SERVICE BINGHAMTON NY
700 AM EST MON NOV 20 2017

Note: "fair" indicates few or no clouds below 12,000 feet with no
significant weather and/or obstructions to visibility.

* = Station(s) that does not report precipitation, such as rain,
snow, etc, also no thunder or fog.

NYZ009-015>018-022>025-036-037-044>046-055>057-062-201300
...Central New York...

CITY           SKY/WX    TMP DP  RH WIND       PRES   REMARKS
Binghamton     FLURRIES  27  20  75 W10       29.90R WCI  17
Cortland       CLOUDY    30  23  74 W7        29.92R WCI  23
Dansville      CLOUDY    32  19  58 NW5       29.98R WCI  27
Elmira         CLOUDY    33  25  72 W9        29.96R WCI  25
Seneca Falls   CLOUDY    30  21  69 W16       29.96R WCI  19
Ithaca         MOCLDY    30  22  72 W15G24    29.94R WCI  19
Hamilton       CLOUDY    27  23  86 NW3       29.90R
Hornell        CLOUDY    30  21  69 W7        30.00R WCI  23
Monticello     CLOUDY    29  19  66 W12G17    29.90R WCI  19
Penn Yan       CLOUDY    32  17  54 W8        29.94R WCI  25
Rome           CLOUDY    26  20  77 W6        29.95R WCI  19
Sidney         CLOUDY    28  19  69 W8        29.93R WCI  20
Syracuse       LGT SNOW  29  27  92 W8        29.93R FOG     WCI  21
$$

PAZ038>040-043-044-047-048-072-201300
...Northeast Pennsylvania...

CITY           SKY/WX    TMP DP  RH WIND       PRES   REMARKS
Hazleton       CLOUDY    32  23  69 W7G17     29.99R WCI  26
Scranton       CLOUDY    32  26  78 SW9       29.97R WCI  24
$$
&&
KEY
WCI = Wind Chill Index
VSB = Visibility
HX  = Heat Index
$$




USA.gov is the U.S. government's official web portal to all federal, state and local government web resources and services.